QPF
0.00 0.00 0.00 0.00 0.00 0.00 0.00 0.00 0.00 0.00 0.00 0.00 0.00 0.00 0.00 0.00 0.00 0.00 0.00 0.00 0.00 0.00 0.00 0.00 0.00 0.00 0.01 0.01 0.00 0.00 0.00 0.00 0.00 0.00 0.00 0.00 0.00 0.00 0.00 0.00 0.00 0.01 0.01 0.01 0.00 0.00 0.00 0.00 0.00
0.00 0.00 0.00 0.00 0.00 0.00 0.00 0.00 0.00 0.00 0.00 0.00 0.00 0.00 0.00 0.00 0.00 0.00 0.00 0.00 0.00 0.00 0.00 0.00 0.00 0.00 0.00 0.00 0.00 0.00 0.00 0.00 0.00 0.00 0.00 0.00 0.00 0.00 0.00 0.00 0.00 0.01 0.01 0.01 0.00 0.00 0.00 0.00 0.00
0.00 0.00 0.00 0.00 0.00 0.00 0.00 0.00 0.00 0.00 0.00 0.00 0.01 0.00 0.00 0.00 0.00 0.00 0.00 0.00 0.00 0.00 0.00 0.00 0.00 0.00 0.00 0.00 0.00 0.00 0.00 0.00 0.00 0.00 0.00 0.00 0.00 0.00 0.01 0.01 0.01 0.01 0.01 0.01 0.01 0.00 0.00 0.00 0.00
0.00 0.00 0.00 0.00 0.00 0.00 0.00 0.00 0.00 0.00 0.00 0.00 0.01 0.01 0.00 0.00 0.00 0.00 0.00 0.00 0.00 0.00 0.00 0.00 0.00 0.00 0.00 0.00 0.00 0.00 0.00 0.00 0.00 0.00 0.00 0.00 0.00 0.01 0.01 0.01 0.02 0.01 0.01 0.01 0.01 0.00 0.00 0.00 0.00
0.00 0.00 0.00 0.00 0.00 0.00 0.00 0.00 0.00 0.00 0.00 0.00 0.00 0.00 0.00 0.00 0.00 0.00 0.00 0.00 0.00 0.00 0.00 0.00 0.00 0.00 0.00 0.00 0.00 0.00 0.00 0.00 0.00 0.00 0.00 0.00 0.01 0.01 0.01 0.02 0.02 0.02 0.01 0.01 0.01 0.00 0.00 0.00 0.00
0.00 0.00 0.00 0.00 0.00 0.00 0.00 0.00 0.00 0.00 0.00 0.00 0.00 0.00 0.00 0.00 0.00 0.00 0.00 0.00 0.00 0.00 0.00 0.00 0.00 0.00 0.00 0.00 0.00 0.00 0.00 0.00 0.00 0.00 0.00 0.01 0.01 0.01 0.02 0.02 0.02 0.02 0.02 0.01 0.00 0.00 0.00 0.00 0.00
0.00 0.00 0.00 0.00 0.00 0.00 0.00 0.00 0.00 0.00 0.00 0.00 0.00 0.00 0.00 0.00 0.00 0.00 0.00 0.00 0.00 0.00 0.00 0.00 0.00 0.00 0.00 0.01 0.01 0.01 0.01 0.00 0.00 0.01 0.01 0.01 0.01 0.01 0.02 0.01 0.01 0.01 0.01 0.00 0.00 0.00 0.00 0.00 0.00
0.00 0.00 0.00 0.00 0.00 0.00 0.01 0.00 0.00 0.00 0.00 0.00 0.00 0.00 0.00 0.00 0.00 0.00 0.00 0.00 0.00 0.00 0.00 0.00 0.00 0.00 0.00 0.01 0.01 0.02 0.01 0.01 0.01 0.01 0.01 0.01 0.01 0.01 0.01 0.01 0.01 0.01 0.01 0.00 0.00 0.00 0.00 0.00 0.00
0.00 0.00 0.00 0.00 0.00 0.00 0.00 0.00 0.00 0.00 0.00 0.00 0.00 0.00 0.00 0.00 0.00 0.00 0.00 0.00 0.00 0.00 0.00 0.00 0.00 0.01 0.01 0.01 0.01 0.01 0.01 0.01 0.01 0.01 0.01 0.00 0.00 0.01 0.01 0.00 0.00 0.00 0.00 0.00 0.00 0.00 0.00 0.00 0.00
0.00 0.00 0.00 0.00 0.00 0.01 0.00 0.00 0.00 0.00 0.00 0.00 0.00 0.00 0.00 0.00 0.00 0.00 0.00 0.00 0.00 0.00 0.00 0.00 0.00 0.01 0.01 0.01 0.01 0.01 0.01 0.01 0.01 0.01 0.00 0.01 0.02 0.02 0.01 0.00 0.00 0.00 0.00 0.00 0.00 0.00 0.00 0.00 0.00
0.00 0.00 0.00 0.00 0.00 0.00 0.00 0.00 0.00 0.00 0.00 0.00 0.00 0.00 0.00 0.00 0.00 0.00 0.00 0.00 0.00 0.00 0.00 0.00 0.00 0.00 0.01 0.01 0.01 0.01 0.02 0.02 0.01 0.01 0.01 0.02 0.01 0.01 0.00 0.00 0.00 0.01 0.01 0.01 0.00 0.00 0.00 0.00 0.00
0.00 0.00 0.00 0.00 0.00 0.00 0.00 0.00 0.00 0.00 0.00 0.00 0.00 0.00 0.00 0.00 0.00 0.00 0.00 0.00 0.00 0.00 0.00 0.00 0.00 0.00 0.00 0.01 0.01 0.01 0.01 0.01 0.01 0.01 0.01 0.01 0.01 0.00 0.00 0.01 0.01 0.02 0.01 0.01 0.00 0.00 0.00 0.00 0.00
0.00 0.00 0.00 0.00 0.00 0.00 0.00 0.00 0.00 0.00 0.00 0.00 0.00 0.00 0.00 0.00 0.00 0.00 0.00 0.00 0.00 0.00 0.00 0.00 0.00 0.00 0.00 0.01 0.01 0.01 0.01 0.01 0.01 0.01 0.01 0.00 0.01 0.01 0.01 0.01 0.01 0.02 0.01 0.01 0.00 0.00 0.00 0.00 0.00
0.00 0.00 0.00 0.00 0.00 0.00 0.00 0.00 0.00 0.00 0.00 0.00 0.00 0.00 0.00 0.00 0.00 0.00 0.00 0.00 0.01 0.00 0.00 0.00 0.00 0.00 0.00 0.00 0.01 0.01 0.01 0.01 0.01 0.01 0.01 0.00 0.01 0.02 0.02 0.02 0.02 0.02 0.02 0.03 0.03 0.02 0.02 0.02 0.01
0.00 0.00 0.00 0.00 0.00 0.00 0.00 0.00 0.00 0.00 0.00 0.00 0.00 0.00 0.00 0.00 0.00 0.01 0.01 0.01 0.01 0.01 0.01 0.01 0.01 0.00 0.00 0.00 0.00 0.01 0.00 0.00 0.01 0.01 0.01 0.01 0.01 0.02 0.02 0.03 0.03 0.03 0.03 0.04 0.04 0.04 0.04 0.03 0.03
0.00 0.00 0.00 0.00 0.00 0.00 0.00 0.00 0.00 0.00 0.00 0.00 0.00 0.00 0.00 0.00 0.00 0.01 0.01 0.01 0.01 0.02 0.02 0.02 0.02 0.01 0.00 0.00 0.01 0.01 0.00 0.00 0.00 0.01 0.01 0.02 0.02 0.02 0.03 0.03 0.04 0.04 0.05 0.06 0.06 0.06 0.06 0.07 0.06
0.00 0.00 0.00 0.00 0.00 0.00 0.00 0.00 0.00 0.00 0.00 0.00 0.00 0.00 0.00 0.01 0.01 0.01 0.01 0.01 0.02 0.02 0.01 0.01 0.01 0.01 0.00 0.00 0.00 0.01 0.01 0.01 0.01 0.02 0.03 0.02 0.03 0.04 0.05 0.06 0.07 0.07 0.08 0.09 0.08 0.06 0.08 0.10 0.09
0.00 0.00 0.00 0.00 0.00 0.00 0.00 0.00 0.00 0.00 0.00 0.00 0.00 0.00 0.00 0.01 0.01 0.01 0.01 0.01 0.02 0.02 0.02 0.03 0.02 0.01 0.01 0.01 0.01 0.01 0.02 0.02 0.04 0.06 0.07 0.09 0.11 0.10 0.10 0.10 0.12 0.14 0.17 0.16 0.14 0.12 0.11 0.10 0.08
0.00 0.00 0.00 0.00 0.00 0.00 0.00 0.00 0.00 0.00 0.00 0.00 0.00 0.00 0.00 0.00 0.01 0.01 0.01 0.02 0.02 0.02 0.03 0.04 0.04 0.03 0.02 0.02 0.03 0.04 0.05 0.06 0.08 0.11 0.12 0.14 0.15 0.17 0.20 0.21 0.21 0.23 0.26 0.26 0.22 0.18 0.14 0.11 0.09
0.00 0.00 0.00 0.00 0.00 0.00 0.00 0.00 0.00 0.00 0.00 0.00 0.00 0.00 0.00 0.00 0.01 0.01 0.01 0.02 0.03 0.04 0.05 0.06 0.06 0.05 0.04 0.04 0.06 0.10 0.16 0.21 0.21 0.19 0.19 0.17 0.17 0.18 0.21 0.22 0.24 0.26 0.28 0.27 0.27 0.25 0.22 0.18 0.15
0.00 0.00 0.00 0.00 0.00 0.00 0.00 0.01 0.01 0.01 0.01 0.00 0.00 0.00 0.00 0.01 0.01 0.01 0.02 0.03 0.04 0.05 0.06 0.06 0.07 0.11 0.13 0.14 0.16 0.23 0.29 0.36 0.37 0.32 0.28 0.24 0.21 0.20 0.23 0.24 0.25 0.27 0.27 0.29 0.29 0.26 0.25 0.24 0.22
0.00 0.00 0.00 0.00 0.00 0.00 0.00 0.01 0.01 0.01 0.01 0.01 0.01 0.01 0.01 0.01 0.01 0.01 0.02 0.03 0.04 0.04 0.05 0.06 0.07 0.14 0.19 0.23 0.27 0.32 0.38 0.43 0.43 0.42 0.37 0.29 0.23 0.22 0.22 0.23 0.24 0.24 0.24 0.23 0.23 0.26 0.29 0.30 0.26
0.00 0.00 0.00 0.00 0.00 0.00 0.00 0.01 0.02 0.01 0.01 0.01 0.02 0.01 0.01 0.01 0.01 0.01 0.02 0.03 0.03 0.03 0.03 0.05 0.07 0.11 0.17 0.25 0.32 0.38 0.39 0.38 0.39 0.39 0.32 0.28 0.26 0.23 0.22 0.22 0.22 0.21 0.20 0.19 0.18 0.19 0.22 0.21 0.18
0.00 0.00 0.00 0.00 0.00 0.00 0.00 0.01 0.02 0.02 0.01 0.02 0.02 0.02 0.02 0.02 0.02 0.02 0.02 0.02 0.03 0.04 0.05 0.06 0.07 0.10 0.15 0.23 0.30 0.39 0.45 0.46 0.42 0.35 0.30 0.28 0.25 0.23 0.22 0.20 0.19 0.18 0.16 0.14 0.12 0.11 0.10 0.09 0.08
0.00 0.00 0.00 0.00 0.00 0.00 0.00 0.01 0.03 0.04 0.02 0.02 0.02 0.02 0.02 0.02 0.02 0.02 0.02 0.02 0.03 0.05 0.06 0.06 0.07 0.12 0.16 0.19 0.24 0.28 0.34 0.39 0.39 0.34 0.28 0.25 0.24 0.23 0.20 0.17 0.15 0.12 0.10 0.08 0.07 0.07 0.05 0.04 0.03
0.00 0.00 0.00 0.00 0.00 0.00 0.02 0.03 0.04 0.04 0.03 0.02 0.02 0.02 0.02 0.02 0.02 0.02 0.02 0.02 0.03 0.04 0.06 0.07 0.08 0.11 0.13 0.16 0.19 0.21 0.24 0.25 0.25 0.25 0.24 0.22 0.19 0.16 0.13 0.10 0.08 0.06 0.05 0.06 0.05 0.04 0.03 0.02 0.02
0.00 0.00 0.00 0.00 0.00 0.01 0.03 0.03 0.04 0.04 0.03 0.01 0.02 0.02 0.02 0.02 0.02 0.02 0.02 0.02 0.03 0.03 0.04 0.06 0.07 0.09 0.11 0.12 0.12 0.12 0.14 0.16 0.17 0.16 0.15 0.14 0.13 0.11 0.10 0.08 0.05 0.04 0.03 0.03 0.03 0.02 0.02 0.02 0.02
0.00 0.00 0.00 0.00 0.00 0.01 0.03 0.03 0.04 0.03 0.03 0.02 0.01 0.02 0.02 0.02 0.02 0.02 0.02 0.02 0.03 0.03 0.04 0.05 0.06 0.07 0.08 0.09 0.09 0.11 0.12 0.13 0.14 0.14 0.14 0.13 0.10 0.08 0.07 0.05 0.04 0.03 0.02 0.02 0.02 0.01 0.01 0.01 0.01
0.01 0.01 0.00 0.00 0.00 0.00 0.02 0.04 0.03 0.02 0.02 0.01 0.01 0.02 0.02 0.02 0.02 0.02 0.02 0.02 0.03 0.04 0.04 0.05 0.07 0.07 0.07 0.08 0.09 0.09 0.10 0.11 0.11 0.11 0.11 0.09 0.07 0.04 0.03 0.03 0.02 0.02 0.01 0.01 0.01 0.01 0.01 0.01 0.01
0.00 0.00 0.01 0.01 0.00 0.00 0.02 0.04 0.03 0.03 0.02 0.01 0.01 0.02 0.02 0.01 0.02 0.02 0.02 0.02 0.02 0.03 0.04 0.04 0.05 0.07 0.08 0.08 0.08 0.08 0.09 0.09 0.08 0.07 0.06 0.05 0.05 0.04 0.04 0.03 0.03 0.02 0.02 0.01 0.01 0.01 0.00 0.00 0.00
MSLP
1011.73 1011.93 1012.21 1012.49 1012.71 1012.83 1012.83 1012.74 1012.58 1012.41 1012.24 1012.10 1011.98 1011.84 1011.68 1011.46 1011.20 1010.94 1010.71 1010.61 1010.67 1010.92 1011.38 1011.98 1012.66 1013.33 1013.91 1014.35 1014.65 1014.83 1014.95 1015.07 1015.28 1015.59 1016.01 1016.49 1016.98 1017.41 1017.73 1017.91 1017.97 1017.95 1017.91 1017.90 1017.97 1018.11 1018.31 1018.52 1018.70
1011.88 1012.13 1012.43 1012.70 1012.88 1012.93 1012.84 1012.64 1012.36 1012.06 1011.77 1011.51 1011.29 1011.09 1010.90 1010.70 1010.50 1010.32 1010.21 1010.23 1010.42 1010.80 1011.35 1012.03 1012.77 1013.47 1014.08 1014.53 1014.85 1015.04 1015.18 1015.33 1015.55 1015.87 1016.27 1016.73 1017.18 1017.55 1017.82 1017.96 1017.99 1017.97 1017.96 1018.00 1018.12 1018.32 1018.57 1018.81 1018.99
1012.08 1012.35 1012.63 1012.86 1012.97 1012.93 1012.75 1012.44 1012.06 1011.65 1011.27 1010.94 1010.67 1010.45 1010.26 1010.09 1009.95 1009.86 1009.86 1009.98 1010.27 1010.75 1011.37 1012.11 1012.90 1013.64 1014.27 1014.76 1015.10 1015.33 1015.50 1015.68 1015.91 1016.22 1016.60 1017.01 1017.40 1017.71 1017.92 1018.02 1018.05 1018.05 1018.07 1018.17 1018.35 1018.61 1018.89 1019.13 1019.29
1012.31 1012.56 1012.80 1012.95 1012.97 1012.84 1012.56 1012.16 1011.71 1011.25 1010.82 1010.47 1010.19 1009.99 1009.83 1009.72 1009.65 1009.63 1009.71 1009.91 1010.27 1010.80 1011.47 1012.24 1013.05 1013.81 1014.47 1015.00 1015.38 1015.66 1015.86 1016.07 1016.31 1016.60 1016.95 1017.31 1017.64 1017.90 1018.07 1018.15 1018.19 1018.21 1018.29 1018.44 1018.68 1018.96 1019.26 1019.49 1019.61
1012.50 1012.72 1012.89 1012.95 1012.87 1012.64 1012.29 1011.84 1011.35 1010.87 1010.46 1010.13 1009.90 1009.74 1009.64 1009.59 1009.59 1009.64 1009.77 1010.02 1010.41 1010.95 1011.63 1012.40 1013.21 1013.98 1014.65 1015.21 1015.63 1015.94 1016.19 1016.42 1016.67 1016.96 1017.28 1017.60 1017.89 1018.11 1018.26 1018.35 1018.40 1018.47 1018.59 1018.79 1019.06 1019.36 1019.64 1019.84 1019.91
1012.63 1012.79 1012.88 1012.85 1012.68 1012.38 1011.97 1011.49 1011.00 1010.55 1010.18 1009.92 1009.75 1009.67 1009.65 1009.67 1009.72 1009.82 1009.98 1010.25 1010.64 1011.16 1011.81 1012.55 1013.33 1014.08 1014.76 1015.33 1015.78 1016.13 1016.41 1016.67 1016.94 1017.22 1017.53 1017.83 1018.09 1018.31 1018.46 1018.56 1018.65 1018.76 1018.93 1019.15 1019.43 1019.71 1019.96 1020.11 1020.11
1012.69 1012.79 1012.79 1012.68 1012.43 1012.07 1011.63 1011.15 1010.68 1010.28 1009.97 1009.78 1009.69 1009.68 1009.73 1009.81 1009.92 1010.05 1010.24 1010.50 1010.87 1011.35 1011.95 1012.64 1013.37 1014.09 1014.74 1015.31 1015.78 1016.16 1016.47 1016.76 1017.04 1017.34 1017.64 1017.94 1018.21 1018.44 1018.61 1018.74 1018.87 1019.01 1019.19 1019.42 1019.68 1019.93 1020.12 1020.20 1020.15
1012.67 1012.71 1012.65 1012.47 1012.17 1011.77 1011.32 1010.85 1010.41 1010.05 1009.79 1009.66 1009.63 1009.68 1009.79 1009.92 1010.07 1010.23 1010.43 1010.68 1011.03 1011.47 1012.02 1012.64 1013.31 1013.98 1014.61 1015.16 1015.63 1016.02 1016.36 1016.67 1016.98 1017.29 1017.61 1017.92 1018.20 1018.45 1018.65 1018.82 1018.97 1019.13 1019.31 1019.52 1019.74 1019.93 1020.06 1020.07 1019.97
1012.61 1012.60 1012.48 1012.25 1011.92 1011.51 1011.05 1010.59 1010.17 1009.84 1009.61 1009.50 1009.50 1009.58 1009.72 1009.88 1010.06 1010.25 1010.47 1010.73 1011.06 1011.48 1011.98 1012.56 1013.17 1013.79 1014.38 1014.91 1015.37 1015.76 1016.11 1016.43 1016.76 1017.09 1017.42 1017.75 1018.06 1018.33 1018.56 1018.75 1018.92 1019.08 1019.25 1019.42 1019.59 1019.72 1019.77 1019.73 1019.59
1012.53 1012.48 1012.33 1012.07 1011.72 1011.30 1010.85 1010.39 1009.98 1009.64 1009.41 1009.29 1009.27 1009.35 1009.48 1009.66 1009.86 1010.08 1010.33 1010.62 1010.97 1011.38 1011.87 1012.42 1012.99 1013.57 1014.12 1014.61 1015.05 1015.43 1015.78 1016.11 1016.44 1016.79 1017.14 1017.49 1017.81 1018.10 1018.35 1018.55 1018.72 1018.87 1019.02 1019.15 1019.26 1019.32 1019.32 1019.24 1019.07
1012.46 1012.37 1012.19 1011.92 1011.57 1011.15 1010.70 1010.24 1009.81 1009.45 1009.18 1009.01 1008.95 1008.98 1009.09 1009.27 1009.49 1009.75 1010.04 1010.38 1010.78 1011.23 1011.73 1012.27 1012.82 1013.37 1013.88 1014.35 1014.76 1015.12 1015.46 1015.78 1016.11 1016.46 1016.82 1017.17 1017.51 1017.81 1018.06 1018.27 1018.43 1018.56 1018.68 1018.77 1018.83 1018.85 1018.81 1018.71 1018.53
1012.39 1012.27 1012.07 1011.79 1011.43 1011.02 1010.57 1010.11 1009.66 1009.26 1008.93 1008.69 1008.56 1008.53 1008.61 1008.77 1009.00 1009.30 1009.66 1010.08 1010.54 1011.05 1011.60 1012.16 1012.72 1013.25 1013.74 1014.17 1014.55 1014.89 1015.21 1015.52 1015.84 1016.18 1016.53 1016.88 1017.22 1017.51 1017.76 1017.96 1018.11 1018.23 1018.32 1018.38 1018.41 1018.41 1018.36 1018.25 1018.10
1012.32 1012.17 1011.94 1011.64 1011.29 1010.89 1010.45 1009.99 1009.52 1009.08 1008.69 1008.38 1008.17 1008.08 1008.11 1008.25 1008.50 1008.85 1009.27 1009.77 1010.31 1010.90 1011.51 1012.11 1012.69 1013.22 1013.70 1014.11 1014.47 1014.78 1015.07 1015.37 1015.67 1016.00 1016.33 1016.67 1016.99 1017.28 1017.52 1017.70 1017.84 1017.94 1018.01 1018.06 1018.09 1018.09 1018.06 1017.97 1017.85
1012.23 1012.03 1011.76 1011.46 1011.11 1010.73 1010.31 1009.86 1009.39 1008.93 1008.51 1008.15 1007.88 1007.73 1007.72 1007.84 1008.09 1008.47 1008.94 1009.51 1010.13 1010.79 1011.45 1012.10 1012.71 1013.25 1013.73 1014.13 1014.47 1014.77 1015.05 1015.33 1015.62 1015.92 1016.25 1016.57 1016.87 1017.14 1017.36 1017.53 1017.66 1017.75 1017.83 1017.89 1017.93 1017.96 1017.96 1017.92 1017.85
1012.11 1011.85 1011.55 1011.23 1010.90 1010.54 1010.16 1009.75 1009.32 1008.87 1008.44 1008.06 1007.76 1007.57 1007.51 1007.60 1007.84 1008.23 1008.73 1009.33 1010.00 1010.70 1011.41 1012.09 1012.72 1013.28 1013.76 1014.16 1014.50 1014.80 1015.08 1015.35 1015.64 1015.94 1016.25 1016.55 1016.84 1017.09 1017.29 1017.45 1017.57 1017.67 1017.76 1017.84 1017.92 1017.99 1018.04 1018.07 1018.06
1011.95 1011.63 1011.30 1010.98 1010.66 1010.36 1010.04 1009.70 1009.33 1008.95 1008.55 1008.18 1007.88 1007.66 1007.57 1007.62 1007.82 1008.17 1008.65 1009.24 1009.90 1010.61 1011.32 1012.01 1012.64 1013.21 1013.70 1014.12 1014.48 1014.79 1015.09 1015.38 1015.68 1015.99 1016.30 1016.60 1016.87 1017.10 1017.30 1017.44 1017.57 1017.67 1017.77 1017.88 1018.00 1018.12 1018.24 1018.33 1018.39
1011.77 1011.40 1011.05 1010.74 1010.47 1010.23 1010.01 1009.77 1009.51 1009.21 1008.90 1008.58 1008.28 1008.06 1007.93 1007.92 1008.05 1008.32 1008.72 1009.24 1009.84 1010.49 1011.16 1011.81 1012.43 1012.99 1013.49 1013.94 1014.33 1014.68 1015.02 1015.35 1015.69 1016.02 1016.35 1016.66 1016.93 1017.16 1017.34 1017.48 1017.60 1017.70 1017.82 1017.96 1018.11 1018.29 1018.46 1018.62 1018.75
1011.58 1011.19 1010.85 1010.57 1010.37 1010.23 1010.12 1010.02 1009.89 1009.72 1009.51 1009.26 1009.01 1008.78 1008.60 1008.52 1008.54 1008.69 1008.96 1009.34 1009.81 1010.35 1010.92 1011.51 1012.08 1012.63 1013.13 1013.60 1014.03 1014.44 1014.84 1015.24 1015.63 1016.01 1016.37 1016.70 1016.98 1017.21 1017.39 1017.53 1017.64 1017.75 1017.88 1018.03 1018.21 1018.43 1018.65 1018.86 1019.05
1011.39 1011.03 1010.72 1010.51 1010.41 1010.38 1010.42 1010.47 1010.50 1010.48 1010.39 1010.24 1010.03 1009.80 1009.58 1009.40 1009.29 1009.28 1009.37 1009.57 1009.87 1010.24 1010.68 1011.16 1011.66 1012.16 1012.66 1013.15 1013.63 1014.11 1014.58 1015.05 1015.51 1015.95 1016.36 1016.73 1017.03 1017.28 1017.46 1017.59 1017.70 1017.81 1017.93 1018.09 1018.29 1018.52 1018.77 1019.02 1019.26
1011.22 1010.90 1010.68 1010.57 1010.58 1010.69 1010.89 1011.10 1011.30 1011.44 1011.49 1011.44 1011.29 1011.07 1010.81 1010.53 1010.29 1010.10 1009.99 1009.98 1010.07 1010.26 1010.53 1010.87 1011.28 1011.73 1012.20 1012.71 1013.23 1013.76 1014.31 1014.86 1015.39 1015.90 1016.37 1016.78 1017.12 1017.39 1017.58 1017.72 1017.82 1017.92 1018.03 1018.18 1018.37 1018.60 1018.85 1019.13 1019.39
1011.04 1010.81 1010.68 1010.69 1010.83 1011.10 1011.45 1011.84 1012.21 1012.50 1012.69 1012.75 1012.68 1012.48 1012.19 1011.84 1011.48 1011.13 1010.83 1010.62 1010.51 1010.50 1010.60 1010.80 1011.10 1011.47 1011.92 1012.41 1012.96 1013.54 1014.15 1014.76 1015.37 1015.94 1016.47 1016.93 1017.30 1017.59 1017.80 1017.95 1018.05 1018.13 1018.23 1018.36 1018.52 1018.73 1018.97 1019.23 1019.49
1010.83 1010.70 1010.68 1010.81 1011.09 1011.50 1012.00 1012.55 1013.08 1013.53 1013.86 1014.04 1014.05 1013.91 1013.63 1013.24 1012.80 1012.33 1011.90 1011.52 1011.24 1011.06 1011.01 1011.08 1011.26 1011.56 1011.95 1012.43 1012.98 1013.58 1014.22 1014.88 1015.54 1016.16 1016.73 1017.23 1017.64 1017.96 1018.19 1018.35 1018.45 1018.53 1018.60 1018.70 1018.83 1019.00 1019.20 1019.43 1019.66
1010.58 1010.52 1010.60 1010.84 1011.24 1011.77 1012.41 1013.09 1013.76 1014.36 1014.83 1015.14 1015.26 1015.21 1014.98 1014.62 1014.16 1013.65 1013.14 1012.67 1012.28 1011.98 1011.81 1011.77 1011.87 1012.08 1012.42 1012.86 1013.38 1013.98 1014.63 1015.30 1015.97 1016.62 1017.22 1017.75 1018.19 1018.53 1018.79 1018.96 1019.07 1019.14 1019.20 1019.26 1019.35 1019.46 1019.60 1019.77 1019.95
1010.27 1010.27 1010.42 1010.73 1011.21 1011.84 1012.57 1013.36 1014.16 1014.88 1015.49 1015.93 1016.20 1016.26 1016.15 1015.88 1015.48 1015.00 1014.50 1014.01 1013.58 1013.23 1013.00 1012.89 1012.91 1013.07 1013.34 1013.73 1014.21 1014.77 1015.39 1016.04 1016.70 1017.35 1017.95 1018.49 1018.94 1019.31 1019.59 1019.77 1019.89 1019.96 1020.00 1020.03 1020.07 1020.12 1020.20 1020.28 1020.38
1009.93 1009.96 1010.13 1010.48 1011.00 1011.67 1012.46 1013.33 1014.21 1015.04 1015.78 1016.36 1016.78 1017.00 1017.05 1016.92 1016.65 1016.29 1015.87 1015.45 1015.05 1014.72 1014.48 1014.35 1014.33 1014.44 1014.66 1014.98 1015.41 1015.91 1016.47 1017.08 1017.70 1018.31 1018.89 1019.42 1019.88 1020.26 1020.55 1020.75 1020.88 1020.95 1020.98 1020.98 1020.97 1020.95 1020.94 1020.94 1020.94
1009.64 1009.64 1009.81 1010.14 1010.65 1011.33 1012.14 1013.04 1013.97 1014.89 1015.73 1016.45 1017.02 1017.42 1017.65 1017.71 1017.63 1017.43 1017.17 1016.87 1016.57 1016.32 1016.12 1016.00 1015.98 1016.06 1016.24 1016.51 1016.87 1017.30 1017.80 1018.33 1018.89 1019.45 1019.99 1020.49 1020.93 1021.31 1021.60 1021.82 1021.95 1022.03 1022.04 1022.01 1021.95 1021.87 1021.77 1021.68 1021.58
1009.47 1009.43 1009.54 1009.83 1010.30 1010.94 1011.73 1012.62 1013.57 1014.53 1015.46 1016.29 1017.00 1017.57 1017.99 1018.25 1018.37 1018.38 1018.30 1018.17 1018.01 1017.86 1017.75 1017.69 1017.69 1017.77 1017.93 1018.15 1018.45 1018.81 1019.23 1019.68 1020.16 1020.65 1021.13 1021.59 1022.00 1022.36 1022.65 1022.87 1023.01 1023.08 1023.08 1023.02 1022.91 1022.77 1022.60 1022.41 1022.21
1009.51 1009.41 1009.47 1009.70 1010.10 1010.68 1011.41 1012.26 1013.20 1014.17 1015.14 1016.05 1016.87 1017.58 1018.16 1018.61 1018.92 1019.12 1019.22 1019.26 1019.26 1019.24 1019.23 1019.24 1019.30 1019.39 1019.54 1019.74 1019.99 1020.29 1020.63 1021.00 1021.40 1021.82 1022.23 1022.63 1023.00 1023.33 1023.61 1023.81 1023.95 1024.01 1023.99 1023.91 1023.76 1023.56 1023.32 1023.05 1022.78
1009.82 1009.69 1009.70 1009.87 1010.20 1010.71 1011.37 1012.16 1013.05 1014.00 1014.97 1015.91 1016.80 1017.59 1018.29 1018.86 1019.32 1019.68 1019.94 1020.13 1020.26 1020.37 1020.45 1020.55 1020.65 1020.78 1020.94 1021.13 1021.35 1021.60 1021.88 1022.19 1022.51 1022.85 1023.19 1023.53 1023.85 1024.14 1024.39 1024.57 1024.69 1024.74 1024.71 1024.60 1024.41 1024.17 1023.88 1023.55 1023.21
1010.42 1010.29 1010.28 1010.40 1010.69 1011.13 1011.72 1012.44 1013.27 1014.17 1015.10 1016.02 1016.92 1017.74 1018.49 1019.14 1019.69 1020.13 1020.50 1020.79 1021.02 1021.22 1021.39 1021.56 1021.72 1021.89 1022.07 1022.26 1022.47 1022.69 1022.92 1023.16 1023.42 1023.69 1023.96 1024.23 1024.50 1024.74 1024.95 1025.11 1025.21 1025.24 1025.19 1025.06 1024.85 1024.58 1024.26 1023.90 1023.52
Thickness
5788 5795 5801 5800 5791 5787 5786 5793 5800 5800 5804 5813 5815 5812 5808 5806 5801 5795 5814 5823 5819 5813 5803 5792 5786 5783 5781 5780 5778 5775 5772 5769 5766 5764 5761 5759 5757 5755 5754 5752 5751 5750 5749 5748 5747 5746 5745 5744 5743
5789 5794 5793 5791 5777 5771 5780 5795 5795 5799 5807 5814 5814 5810 5807 5810 5815 5812 5815 5817 5814 5808 5799 5792 5783 5781 5778 5776 5774 5772 5769 5766 5763 5761 5758 5756 5754 5752 5751 5749 5748 5747 5746 5745 5744 5743 5742 5741 5740
5787 5789 5783 5779 5772 5774 5779 5793 5797 5805 5812 5811 5810 5813 5810 5808 5813 5813 5815 5814 5809 5802 5796 5788 5781 5777 5775 5773 5771 5769 5766 5763 5761 5758 5756 5753 5751 5749 5748 5747 5745 5744 5743 5742 5741 5739 5738 5737 5736
5782 5779 5777 5767 5768 5785 5791 5796 5800 5801 5807 5812 5810 5807 5814 5816 5817 5817 5815 5811 5805 5799 5793 5784 5778 5774 5772 5769 5768 5766 5763 5760 5758 5755 5753 5750 5748 5746 5745 5744 5743 5741 5740 5739 5738 5736 5735 5734 5733
5778 5771 5761 5760 5771 5788 5796 5798 5799 5797 5800 5806 5808 5805 5808 5815 5820 5817 5811 5808 5802 5797 5791 5782 5774 5771 5768 5766 5764 5762 5760 5758 5755 5753 5750 5748 5745 5744 5743 5741 5740 5739 5738 5737 5735 5734 5732 5731 5730
5765 5764 5753 5757 5771 5785 5793 5797 5796 5796 5801 5807 5807 5805 5808 5814 5814 5812 5810 5806 5802 5796 5790 5779 5771 5768 5765 5763 5761 5759 5757 5755 5752 5750 5748 5746 5743 5742 5740 5739 5738 5737 5736 5735 5733 5731 5730 5729 5728
5757 5756 5755 5764 5770 5778 5788 5795 5791 5793 5797 5805 5811 5804 5808 5811 5813 5813 5809 5806 5802 5796 5789 5779 5772 5766 5762 5760 5758 5756 5754 5752 5750 5747 5745 5743 5741 5740 5738 5737 5736 5735 5734 5732 5731 5729 5728 5727 5726
5759 5756 5753 5762 5765 5773 5789 5790 5792 5791 5795 5811 5812 5803 5805 5809 5812 5811 5807 5803 5799 5794 5789 5782 5775 5769 5763 5759 5755 5753 5751 5749 5747 5745 5743 5741 5739 5737 5736 5736 5734 5733 5732 5731 5729 5728 5726 5725 5724
5749 5740 5747 5759 5762 5771 5785 5781 5788 5796 5796 5803 5811 5812 5815 5814 5811 5806 5800 5797 5793 5790 5787 5783 5777 5770 5766 5762 5755 5751 5748 5746 5744 5742 5740 5739 5740 5740 5737 5736 5732 5731 5730 5729 5727 5726 5725 5724 5723
5737 5735 5749 5764 5768 5770 5776 5775 5781 5784 5786 5794 5802 5808 5811 5808 5805 5801 5797 5792 5789 5786 5785 5783 5778 5771 5768 5764 5756 5753 5750 5746 5745 5744 5741 5741 5742 5740 5739 5734 5731 5730 5729 5727 5726 5725 5724 5724 5727
5734 5736 5750 5754 5758 5761 5764 5769 5778 5776 5779 5793 5798 5802 5804 5803 5802 5801 5798 5795 5792 5788 5783 5782 5777 5772 5769 5765 5759 5755 5753 5748 5747 5745 5743 5741 5740 5739 5738 5735 5731 5730 5729 5730 5727 5726 5728 5729 5728
5726 5733 5740 5745 5753 5753 5756 5763 5768 5773 5783 5800 5804 5807 5804 5801 5802 5802 5800 5797 5793 5788 5782 5780 5776 5770 5768 5766 5761 5757 5754 5750 5749 5745 5742 5741 5739 5738 5738 5735 5735 5733 5732 5731 5731 5730 5729 5727 5726
5717 5727 5735 5741 5747 5751 5754 5757 5762 5771 5788 5797 5802 5802 5802 5803 5803 5803 5803 5799 5794 5787 5782 5779 5774 5768 5764 5762 5759 5757 5754 5751 5748 5744 5741 5740 5739 5737 5736 5734 5732 5732 5732 5729 5727 5728 5726 5724 5725
5721 5725 5731 5739 5745 5749 5748 5756 5760 5769 5785 5789 5793 5796 5800 5801 5801 5800 5797 5793 5790 5785 5781 5778 5772 5766 5761 5758 5756 5754 5752 5747 5747 5743 5741 5737 5737 5735 5733 5731 5729 5729 5728 5727 5725 5724 5722 5722 5722
5716 5715 5725 5736 5742 5748 5748 5745 5755 5770 5779 5781 5786 5790 5793 5796 5798 5795 5793 5789 5787 5782 5779 5773 5768 5764 5759 5756 5754 5752 5749 5746 5744 5741 5737 5734 5733 5731 5729 5729 5727 5726 5724 5721 5720 5719 5718 5717 5716
5709 5710 5715 5733 5740 5745 5739 5738 5757 5769 5772 5773 5779 5783 5784 5787 5791 5791 5790 5786 5784 5780 5775 5770 5767 5761 5756 5753 5751 5750 5748 5744 5741 5738 5734 5731 5729 5727 5725 5725 5724 5722 5720 5718 5717 5716 5715 5713 5711
5700 5705 5714 5722 5735 5740 5738 5738 5749 5762 5765 5765 5770 5775 5777 5778 5781 5784 5785 5782 5780 5777 5773 5768 5765 5760 5755 5751 5747 5746 5742 5740 5737 5734 5731 5727 5724 5722 5720 5720 5719 5716 5715 5714 5713 5712 5709 5706 5704
5697 5705 5708 5715 5726 5732 5729 5729 5739 5750 5755 5758 5762 5765 5767 5768 5770 5775 5778 5779 5776 5773 5770 5766 5762 5758 5753 5749 5745 5741 5738 5734 5731 5728 5725 5722 5720 5718 5715 5713 5711 5709 5708 5707 5705 5702 5699 5698 5696
5696 5698 5701 5709 5722 5722 5720 5720 5727 5737 5743 5746 5750 5754 5756 5757 5763 5767 5769 5771 5771 5768 5765 5763 5759 5755 5750 5746 5742 5736 5731 5727 5724 5721 5718 5716 5713 5711 5708 5707 5705 5702 5700 5699 5697 5693 5690 5687 5687
5688 5689 5696 5705 5715 5715 5713 5712 5718 5724 5727 5731 5735 5740 5743 5746 5750 5754 5758 5761 5763 5762 5760 5757 5755 5752 5748 5744 5740 5735 5729 5722 5718 5713 5708 5706 5704 5703 5701 5699 5697 5694 5691 5690 5688 5685 5682 5679 5676
5683 5688 5695 5698 5707 5714 5710 5703 5708 5712 5717 5720 5724 5728 5731 5733 5736 5740 5744 5748 5752 5753 5753 5753 5750 5747 5743 5740 5735 5729 5723 5716 5708 5703 5700 5697 5694 5693 5691 5688 5687 5685 5684 5681 5678 5676 5674 5670 5664
5680 5694 5695 5696 5698 5705 5711 5700 5699 5703 5703 5705 5708 5712 5716 5720 5724 5727 5731 5735 5739 5743 5746 5746 5743 5741 5738 5735 5731 5724 5717 5708 5702 5696 5691 5687 5683 5682 5680 5678 5676 5674 5672 5669 5668 5667 5665 5660 5655
5686 5696 5696 5697 5699 5702 5706 5705 5694 5700 5693 5691 5693 5696 5701 5705 5710 5713 5717 5721 5726 5731 5734 5735 5734 5731 5730 5727 5722 5715 5708 5700 5693 5686 5682 5676 5671 5669 5667 5665 5663 5661 5659 5657 5656 5655 5652 5649 5645
5688 5689 5691 5695 5700 5688 5702 5702 5688 5694 5689 5682 5682 5684 5687 5692 5696 5699 5704 5709 5713 5717 5720 5721 5721 5718 5717 5715 5711 5706 5698 5689 5683 5676 5670 5663 5658 5655 5653 5652 5650 5648 5646 5643 5641 5640 5638 5634 5631
5682 5678 5674 5677 5682 5690 5702 5696 5677 5681 5683 5677 5674 5674 5677 5680 5683 5686 5689 5693 5696 5700 5703 5705 5706 5703 5702 5700 5696 5692 5686 5679 5671 5665 5659 5652 5646 5641 5638 5637 5636 5634 5632 5629 5627 5625 5623 5620 5617
5679 5682 5678 5678 5685 5693 5692 5682 5665 5671 5672 5670 5668 5666 5667 5668 5671 5672 5675 5677 5680 5683 5686 5688 5688 5687 5684 5682 5679 5675 5670 5664 5658 5652 5646 5639 5632 5627 5624 5623 5620 5618 5616 5614 5611 5610 5608 5605 5602
5678 5682 5696 5689 5692 5686 5681 5667 5658 5662 5661 5660 5659 5657 5656 5657 5658 5659 5661 5663 5665 5666 5668 5669 5670 5668 5666 5663 5661 5656 5652 5647 5642 5636 5630 5622 5617 5613 5609 5607 5604 5602 5600 5598 5596 5594 5592 5590 5588
5683 5686 5682 5682 5674 5673 5670 5669 5665 5656 5653 5652 5651 5648 5646 5646 5646 5646 5647 5648 5649 5650 5651 5652 5652 5650 5648 5646 5643 5638 5633 5629 5624 5619 5613 5607 5602 5599 5595 5592 5589 5587 5585 5583 5581 5580 5576 5574 5572
5672 5675 5678 5685 5688 5679 5668 5665 5677 5666 5657 5649 5644 5640 5637 5635 5634 5632 5632 5633 5634 5635 5635 5634 5633 5632 5629 5627 5623 5620 5615 5611 5607 5602 5598 5592 5587 5584 5582 5578 5575 5572 5570 5567 5565 5563 5561 5558 5555
5672 5671 5672 5668 5672 5680 5679 5652 5665 5664 5655 5645 5636 5630 5626 5623 5621 5620 5619 5619 5619 5619 5619 5618 5616 5614 5611 5608 5605 5601 5597 5594 5590 5585 5580 5576 5573 5569 5566 5564 5561 5558 5555 5553 5551 5549 5545 5543 5540